Time,TemperatureF,DewpointF,PressureIn,WindDirection,WindDirectionDegrees,WindSpeedMPH,WindSpeedGustMPH,Humidity,HourlyPrecipIn,Conditions,Clouds,dailyrainin,SolarRadiationWatts/m^2,SoftwareType,DateUTC
2013-05-28 00:02:00,53.6,50.7,29.88,SW,231,2.0,5.0,90,0.00,RA,RA,0.00,0.0,WeatherDisplay:10.37,2013-05-27 22:02:00,
2013-05-28 00:12:00,53.4,50.6,29.88,SW,222,3.0,6.0,90,0.00,CLR,CLR,0.00,0.0,WeatherDisplay:10.37,2013-05-27 22:12:00,
2013-05-28 00:17:00,53.4,50.6,29.88,SW,222,2.0,5.0,90,0.00,CLR,CLR,0.00,0.0,WeatherDisplay:10.37,2013-05-27 22:17:00,
2013-05-28 00:22:00,53.2,50.7,29.88,SSW,210,3.0,6.0,91,0.00,CLR,CLR,0.00,0.0,WeatherDisplay:10.37,2013-05-27 22:22:00,
2013-05-28 00:32:00,53.2,50.7,29.88,SSW,205,2.0,4.0,91,0.00,CLR,CLR,0.00,0.0,WeatherDisplay:10.37,2013-05-27 22:32:00,
2013-05-28 00:37:00,53.2,50.7,29.88,SSW,201,3.0,5.0,91,0.00,CLR,CLR,0.00,0.0,WeatherDisplay:10.37,2013-05-27 22:37:00,
2013-05-28 00:42:00,53.1,50.5,29.88,SSW,205,2.0,5.0,91,0.00,CLR,CLR,0.00,0.0,WeatherDisplay:10.37,2013-05-27 22:42:00,
2013-05-28 00:47:00,53.1,50.5,29.88,SSW,209,3.0,6.0,91,0.00,CLR,CLR,0.00,0.0,WeatherDisplay:10.37,2013-05-27 22:47:00,
2013-05-28 00:52:00,53.1,50.5,29.88,SW,219,2.0,5.0,91,0.00,CLR,CLR,0.00,0.0,WeatherDisplay:10.37,2013-05-27 22:52:00,
2013-05-28 01:02:00,53.1,50.8,29.88,SSW,207,2.0,4.0,92,0.00,RA,RA,0.00,0.0,WeatherDisplay:10.37,2013-05-27 23:02:00,
2013-05-28 01:07:00,52.9,50.6,29.88,SW,220,2.0,5.0,92,0.00,RA,RA,0.00,0.0,WeatherDisplay:10.37,2013-05-27 23:07:00,
2013-05-28 01:17:00,52.9,50.6,29.85,SSW,202,1.0,4.0,92,0.00,RA,RA,0.01,0.0,WeatherDisplay:10.37,2013-05-27 23:17:00,
2013-05-28 01:22:00,52.7,50.4,29.85,SSW,213,2.0,4.0,92,0.00,,,0.01,0.0,WeatherDisplay:10.37,2013-05-27 23:22:00,
2013-05-28 01:32:00,52.7,50.4,29.88,SSW,204,1.0,5.0,92,0.00,CLR,CLR,0.01,0.0,WeatherDisplay:10.37,2013-05-27 23:32:00,
2013-05-28 01:37:00,52.7,50.4,29.88,SSW,213,1.0,4.0,92,0.00,CLR,CLR,0.01,0.0,WeatherDisplay:10.37,2013-05-27 23:37:00,
2013-05-28 01:47:00,52.7,50.4,29.88,SSW,204,2.0,4.0,92,0.00,CLR,CLR,0.01,0.0,WeatherDisplay:10.37,2013-05-27 23:47:00,
2013-05-28 01:52:00,52.5,50.3,29.88,SSW,197,3.0,5.0,92,0.00,CLR,CLR,0.01,0.0,WeatherDisplay:10.37,2013-05-27 23:52:00,
2013-05-28 02:02:00,52.5,50.3,29.85,SSW,198,3.0,6.0,92,0.00,CLR,CLR,0.01,0.0,WeatherDisplay:10.37,2013-05-28 00:02:00,
2013-05-28 02:12:00,52.5,50.6,29.85,SSW,207,3.0,6.0,93,0.00,CLR,CLR,0.01,0.0,WeatherDisplay:10.37,2013-05-28 00:12:00,
2013-05-28 02:17:00,52.5,50.6,29.85,SW,219,2.0,5.0,93,0.00,CLR,CLR,0.01,0.0,WeatherDisplay:10.37,2013-05-28 00:17:00,
2013-05-28 02:22:00,52.5,50.6,29.85,SW,229,2.0,5.0,93,0.00,CLR,CLR,0.01,0.0,WeatherDisplay:10.37,2013-05-28 00:22:00,
2013-05-28 02:32:00,52.5,50.6,29.85,SSW,204,3.0,5.0,93,0.00,CLR,CLR,0.01,0.0,WeatherDisplay:10.37,2013-05-28 00:32:00,
2013-05-28 02:37:00,52.5,50.6,29.85,SSW,199,3.0,6.0,93,0.00,CLR,CLR,0.01,0.0,WeatherDisplay:10.37,2013-05-28 00:37:00,
2013-05-28 02:42:00,52.5,50.6,29.85,SSW,206,3.0,6.0,93,0.00,CLR,CLR,0.01,0.0,WeatherDisplay:10.37,2013-05-28 00:42:00,
2013-05-28 02:47:00,52.3,50.4,29.85,SSW,209,3.0,7.0,93,0.00,CLR,CLR,0.01,0.0,WeatherDisplay:10.37,2013-05-28 00:47:00,
2013-05-28 02:52:00,52.3,50.4,29.85,SSW,200,2.0,5.0,93,0.00,CLR,CLR,0.01,0.0,WeatherDisplay:10.37,2013-05-28 00:52:00,
2013-05-28 03:02:00,52.4,50.5,29.85,South,190,3.0,6.0,93,0.00,CLR,CLR,0.01,0.0,WeatherDisplay:10.37,2013-05-28 01:02:00,
2013-05-28 03:07:00,52.5,50.6,29.85,SSW,197,3.0,6.0,93,0.00,CLR,CLR,0.01,0.0,WeatherDisplay:10.37,2013-05-28 01:07:00,
2013-05-28 03:12:00,52.5,50.6,29.85,SSW,208,2.0,3.0,93,0.00,CLR,CLR,0.01,0.0,WeatherDisplay:10.37,2013-05-28 01:12:00,
2013-05-28 03:22:00,52.5,50.6,29.85,SSW,213,2.0,5.0,93,0.00,CLR,CLR,0.01,0.0,WeatherDisplay:10.37,2013-05-28 01:22:00,
2013-05-28 03:27:00,52.5,50.8,29.85,SW,218,2.0,6.0,94,0.00,CLR,CLR,0.01,0.0,WeatherDisplay:10.37,2013-05-28 01:27:00,
2013-05-28 03:32:00,52.5,50.8,29.85,SSW,204,3.0,6.0,94,0.00,CLR,CLR,0.01,0.0,WeatherDisplay:10.37,2013-05-28 01:32:00,
2013-05-28 03:37:00,52.5,50.8,29.85,SSW,202,3.0,7.0,94,0.00,CLR,CLR,0.01,0.0,WeatherDisplay:10.37,2013-05-28 01:37:00,
2013-05-28 03:47:00,52.3,50.4,29.85,SSW,196,3.0,7.0,93,0.00,CLR,CLR,0.01,0.0,WeatherDisplay:10.37,2013-05-28 01:47:00,
2013-05-28 03:57:00,52.3,50.4,29.85,SSW,196,2.0,5.0,93,0.00,CLR,CLR,0.01,0.0,WeatherDisplay:10.37,2013-05-28 01:57:00,
2013-05-28 04:02:00,52.3,50.4,29.85,SSW,204,1.0,5.0,93,0.00,CLR,CLR,0.01,0.0,WeatherDisplay:10.37,2013-05-28 02:02:00,
2013-05-28 04:07:00,52.3,50.7,29.85,SSW,195,2.0,5.0,94,0.00,CLR,CLR,0.01,0.0,WeatherDisplay:10.37,2013-05-28 02:07:00,
2013-05-28 04:17:00,52.3,50.7,29.85,SSW,201,3.0,5.0,94,0.00,CLR,CLR,0.01,0.0,WeatherDisplay:10.37,2013-05-28 02:17:00,
2013-05-28 04:22:00,52.3,50.7,29.85,SSW,197,3.0,6.0,94,0.00,CLR,CLR,0.01,0.0,WeatherDisplay:10.37,2013-05-28 02:22:00,
2013-05-28 04:32:00,52.4,50.8,29.85,SW,222,2.0,5.0,94,0.00,OVC,OVC,0.01,0.0,WeatherDisplay:10.37,2013-05-28 02:32:00,
2013-05-28 04:37:00,52.5,50.8,29.85,SSW,213,3.0,6.0,94,0.00,OVC,OVC,0.01,0.0,WeatherDisplay:10.37,2013-05-28 02:37:00,
2013-05-28 04:47:00,52.5,50.8,29.85,SSW,201,3.0,6.0,94,0.00,OVC,OVC,0.01,0.0,WeatherDisplay:10.37,2013-05-28 02:47:00,
2013-05-28 04:52:00,52.5,50.8,29.85,SSW,198,3.0,6.0,94,0.00,OVC,OVC,0.01,0.0,WeatherDisplay:10.37,2013-05-28 02:52:00,
2013-05-28 04:57:00,52.5,50.8,29.85,SSW,204,2.0,6.0,94,0.00,OVC,OVC,0.01,0.0,WeatherDisplay:10.37,2013-05-28 02:57:00,
2013-05-28 05:07:00,52.5,50.8,29.83,SW,222,2.0,5.0,94,0.00,OVC,OVC,0.01,0.0,WeatherDisplay:10.37,2013-05-28 03:07:00,
2013-05-28 05:12:00,52.5,50.8,29.83,SW,220,1.0,5.0,94,0.00,OVC,OVC,0.01,0.0,WeatherDisplay:10.37,2013-05-28 03:12:00,
2013-05-28 05:17:00,52.5,50.8,29.85,SSW,212,2.0,5.0,94,0.00,OVC,OVC,0.01,0.0,WeatherDisplay:10.37,2013-05-28 03:17:00,
2013-05-28 05:27:00,52.5,50.8,29.85,SSW,211,2.0,5.0,94,0.00,OVC,OVC,0.01,0.0,WeatherDisplay:10.37,2013-05-28 03:27:00,
2013-05-28 05:37:00,52.5,50.8,29.85,WSW,237,2.0,4.0,94,0.00,OVC,OVC,0.01,0.0,WeatherDisplay:10.37,2013-05-28 03:37:00,
2013-05-28 05:47:00,52.5,50.8,29.85,WSW,237,2.0,3.0,94,0.00,OVC,OVC,0.01,0.0,WeatherDisplay:10.37,2013-05-28 03:47:00,
2013-05-28 05:52:00,52.5,50.8,29.85,SW,225,1.0,5.0,94,0.00,OVC,OVC,0.01,0.0,WeatherDisplay:10.37,2013-05-28 03:52:00,
2013-05-28 05:57:00,52.5,50.8,29.85,WSW,237,2.0,3.0,94,0.00,OVC,OVC,0.01,0.0,WeatherDisplay:10.37,2013-05-28 03:57:00,
2013-05-28 06:02:00,52.5,50.8,29.83,WSW,245,2.0,4.0,94,0.00,OVC,OVC,0.01,0.0,WeatherDisplay:10.37,2013-05-28 04:02:00,
2013-05-28 06:07:00,52.7,51.0,29.83,SW,234,1.0,5.0,94,0.00,OVC,OVC,0.01,0.0,WeatherDisplay:10.37,2013-05-28 04:07:00,
2013-05-28 06:12:00,52.7,51.0,29.83,SW,228,1.0,4.0,94,0.00,OVC,OVC,0.01,0.0,WeatherDisplay:10.37,2013-05-28 04:12:00,
2013-05-28 06:17:00,52.7,51.0,29.85,SW,229,3.0,5.0,94,0.00,OVC,OVC,0.01,0.0,WeatherDisplay:10.37,2013-05-28 04:17:00,
2013-05-28 06:22:00,52.7,51.0,29.85,SW,230,1.0,5.0,94,0.00,OVC,OVC,0.01,0.0,WeatherDisplay:10.37,2013-05-28 04:22:00,
2013-05-28 06:27:00,52.9,51.2,29.85,SW,225,1.0,5.0,94,0.00,OVC,OVC,0.01,0.0,WeatherDisplay:10.37,2013-05-28 04:27:00,
2013-05-28 06:32:00,52.9,51.2,29.85,SSW,206,2.0,3.0,94,0.00,OVC,OVC,0.01,0.0,WeatherDisplay:10.37,2013-05-28 04:32:00,
2013-05-28 06:37:00,52.9,51.2,29.85,SSW,208,2.0,3.0,94,0.00,OVC,OVC,0.01,0.0,WeatherDisplay:10.37,2013-05-28 04:37:00,
2013-05-28 06:47:00,53.1,51.4,29.88,SSW,208,2.0,6.0,94,0.00,OVC,OVC,0.01,0.0,WeatherDisplay:10.37,2013-05-28 04:47:00,
2013-05-28 06:52:00,53.1,51.4,29.88,South,183,2.0,6.0,94,0.00,OVC,OVC,0.01,0.0,WeatherDisplay:10.37,2013-05-28 04:52:00,
2013-05-28 06:57:00,53.1,51.4,29.88,South,180,3.0,5.0,94,0.00,OVC,OVC,0.01,0.0,WeatherDisplay:10.37,2013-05-28 04:57:00,
2013-05-28 07:07:00,53.2,51.6,29.85,South,180,3.0,5.0,94,0.00,OVC,OVC,0.01,0.0,WeatherDisplay:10.37,2013-05-28 05:07:00,
2013-05-28 07:12:00,53.2,51.6,29.85,South,181,2.0,5.0,94,0.00,OVC,OVC,0.01,0.0,WeatherDisplay:10.37,2013-05-28 05:12:00,
2013-05-28 07:17:00,53.2,51.6,29.85,South,180,2.0,5.0,94,0.00,OVC,OVC,0.01,0.0,WeatherDisplay:10.37,2013-05-28 05:17:00,
2013-05-28 07:22:00,53.4,51.7,29.85,South,185,2.0,5.0,94,0.00,OVC,OVC,0.01,0.0,WeatherDisplay:10.37,2013-05-28 05:22:00,
2013-05-28 07:27:00,53.4,51.7,29.85,South,184,2.0,6.0,94,0.00,OVC,OVC,0.01,0.0,WeatherDisplay:10.37,2013-05-28 05:27:00,
2013-05-28 07:32:00,53.4,51.8,29.85,South,182,2.0,5.0,94,0.00,OVC,OVC,0.01,0.0,WeatherDisplay:10.37,2013-05-28 05:32:00,
2013-05-28 07:37:00,53.6,51.6,29.85,South,190,1.0,5.0,93,0.00,OVC,OVC,0.01,0.0,WeatherDisplay:10.37,2013-05-28 05:37:00,
2013-05-28 07:42:00,53.6,51.9,29.85,SSW,195,2.0,5.0,94,0.00,OVC,OVC,0.01,0.0,WeatherDisplay:10.37,2013-05-28 05:42:00,
2013-05-28 07:47:00,53.8,52.1,29.85,South,184,3.0,5.0,94,0.00,OVC,OVC,0.01,0.0,WeatherDisplay:10.37,2013-05-28 05:47:00,
2013-05-28 07:57:00,54.0,52.3,29.85,South,171,3.0,7.0,94,0.00,OVC,OVC,0.01,0.0,WeatherDisplay:10.37,2013-05-28 05:57:00,
2013-05-28 08:02:00,54.1,52.5,29.85,South,171,5.0,7.0,94,0.00,OVC,OVC,0.01,0.0,WeatherDisplay:10.37,2013-05-28 06:02:00,
2013-05-28 08:12:00,54.3,52.6,29.85,South,174,5.0,8.0,94,0.00,OVC,OVC,0.01,0.0,WeatherDisplay:10.37,2013-05-28 06:12:00,
2013-05-28 08:17:00,54.5,52.8,29.85,South,173,7.0,10.0,94,0.00,OVC,OVC,0.01,0.0,WeatherDisplay:10.37,2013-05-28 06:17:00,
2013-05-28 08:22:00,54.6,52.9,29.85,South,171,3.0,7.0,94,0.00,OVC,OVC,0.01,0.0,WeatherDisplay:10.37,2013-05-28 06:22:00,
2013-05-28 08:32:00,54.9,53.2,29.85,SSE,160,6.0,10.0,94,0.00,OVC,OVC,0.01,0.0,WeatherDisplay:10.37,2013-05-28 06:32:00,
2013-05-28 08:37:00,54.9,52.9,29.85,SSE,165,7.0,10.0,93,0.00,OVC,OVC,0.01,0.0,WeatherDisplay:10.37,2013-05-28 06:37:00,
2013-05-28 08:42:00,55.0,53.1,29.85,SSE,168,6.0,8.0,93,0.00,OVC,OVC,0.01,0.0,WeatherDisplay:10.37,2013-05-28 06:42:00,
2013-05-28 08:47:00,55.2,53.2,29.85,SSE,166,5.0,8.0,93,0.00,OVC,OVC,0.01,0.0,WeatherDisplay:10.37,2013-05-28 06:47:00,
2013-05-28 08:52:00,55.4,53.4,29.85,SSE,167,7.0,10.0,93,0.00,OVC,OVC,0.01,0.0,WeatherDisplay:10.37,2013-05-28 06:52:00,
2013-05-28 08:57:00,55.4,53.1,29.85,SSE,165,6.0,9.0,92,0.00,OVC,OVC,0.01,0.0,WeatherDisplay:10.37,2013-05-28 06:57:00,
2013-05-28 09:07:00,55.8,53.5,29.85,SSE,162,6.0,9.0,92,0.00,OVC,OVC,0.01,0.0,WeatherDisplay:10.37,2013-05-28 07:07:00,
2013-05-28 09:12:00,55.8,53.5,29.85,South,174,6.0,10.0,92,0.00,OVC,OVC,0.01,0.0,WeatherDisplay:10.37,2013-05-28 07:12:00,
2013-05-28 09:17:00,55.8,53.5,29.85,South,173,7.0,10.0,92,0.00,OVC,OVC,0.01,0.0,WeatherDisplay:10.37,2013-05-28 07:17:00,
2013-05-28 09:27:00,55.9,53.4,29.85,South,180,5.0,7.0,91,0.00,OVC,OVC,0.01,0.0,WeatherDisplay:10.37,2013-05-28 07:27:00,
2013-05-28 09:32:00,55.9,53.4,29.85,South,186,3.0,5.0,91,0.00,OVC,OVC,0.01,0.0,WeatherDisplay:10.37,2013-05-28 07:32:00,
2013-05-28 09:37:00,55.9,53.4,29.85,South,187,3.0,6.0,91,0.00,OVC,OVC,0.01,0.0,WeatherDisplay:10.37,2013-05-28 07:37:00,
2013-05-28 09:42:00,56.1,53.2,29.85,South,177,3.0,8.0,90,0.00,OVC,OVC,0.01,0.0,WeatherDisplay:10.37,2013-05-28 07:42:00,
2013-05-28 09:52:00,56.4,53.5,29.85,South,173,3.0,6.0,90,0.00,OVC,OVC,0.01,0.0,WeatherDisplay:10.37,2013-05-28 07:52:00,
2013-05-28 09:57:00,56.7,53.8,29.85,South,182,5.0,7.0,90,0.00,OVC,OVC,0.01,0.0,WeatherDisplay:10.37,2013-05-28 07:57:00,
2013-05-28 10:07:00,56.8,53.6,29.85,South,188,2.0,5.0,89,0.00,OVC,OVC,0.01,0.0,WeatherDisplay:10.37,2013-05-28 08:07:00,
2013-05-28 10:12:00,57.2,54.0,29.85,South,190,2.0,5.0,89,0.00,OVC,OVC,0.01,0.0,WeatherDisplay:10.37,2013-05-28 08:12:00,
2013-05-28 10:17:00,57.6,54.3,29.85,SSW,192,6.0,8.0,89,0.00,OVC,OVC,0.01,0.0,WeatherDisplay:10.37,2013-05-28 08:17:00,
2013-05-28 10:22:00,57.9,54.4,29.85,South,185,3.0,8.0,88,0.00,OVC,OVC,0.01,0.0,WeatherDisplay:10.37,2013-05-28 08:22:00,
2013-05-28 10:27:00,58.3,54.5,29.85,South,183,6.0,9.0,87,0.00,OVC,OVC,0.01,0.0,WeatherDisplay:10.37,2013-05-28 08:27:00,
2013-05-28 10:32:00,58.8,54.3,29.83,South,186,6.0,8.0,85,0.00,OVC,OVC,0.01,0.0,WeatherDisplay:10.37,2013-05-28 08:32:00,
2013-05-28 10:37:00,59.2,54.0,29.83,SSW,195,5.0,8.0,83,0.00,OVC,OVC,0.01,0.0,WeatherDisplay:10.37,2013-05-28 08:37:00,
2013-05-28 10:42:00,59.5,53.4,29.83,SSW,207,6.0,10.0,80,0.00,OVC,OVC,0.01,0.0,WeatherDisplay:10.37,2013-05-28 08:42:00,
2013-05-28 10:52:00,60.2,51.9,29.85,SSW,203,5.0,10.0,74,0.00,BKN,BKN,0.01,200.0,WeatherDisplay:10.37,2013-05-28 08:52:00,
2013-05-28 10:57:00,60.5,51.8,29.85,SSW,209,2.0,8.0,73,0.00,BKN,BKN,0.01,0.0,WeatherDisplay:10.37,2013-05-28 08:57:00,
2013-05-28 11:07:00,61.2,51.7,29.83,SSW,203,5.0,8.0,71,0.00,OVC,OVC,0.01,0.0,WeatherDisplay:10.37,2013-05-28 09:07:00,
2013-05-28 11:12:00,61.5,51.6,29.83,SSW,212,5.0,10.0,70,0.00,BKN,BKN,0.01,400.0,WeatherDisplay:10.37,2013-05-28 09:12:00,
2013-05-28 11:22:00,62.1,51.4,29.85,SW,219,6.0,8.0,68,0.00,BKN,BKN,0.01,300.0,WeatherDisplay:10.37,2013-05-28 09:22:00,
2013-05-28 11:27:00,62.8,52.1,29.85,SW,229,5.0,7.0,68,0.00,SCT,SCT,0.01,300.0,WeatherDisplay:10.37,2013-05-28 09:27:00,
2013-05-28 11:32:00,63.3,52.1,29.85,SW,218,5.0,8.0,67,0.00,SCT,SCT,0.01,0.0,WeatherDisplay:10.37,2013-05-28 09:32:00,
2013-05-28 11:37:00,63.9,51.4,29.85,SSW,197,6.0,10.0,64,0.00,BKN,BKN,0.01,700.0,WeatherDisplay:10.37,2013-05-28 09:37:00,
2013-05-28 11:47:00,64.4,49.7,29.85,SSW,211,7.0,10.0,59,0.00,BKN,BKN,0.01,0.0,WeatherDisplay:10.37,2013-05-28 09:47:00,
2013-05-28 11:52:00,64.8,50.6,29.85,SW,229,5.0,7.0,60,0.00,BKN,BKN,0.01,100.0,WeatherDisplay:10.37,2013-05-28 09:52:00,
2013-05-28 11:57:00,65.3,50.6,29.85,SSW,208,5.0,12.0,59,0.00,BKN,BKN,0.01,0.0,WeatherDisplay:10.37,2013-05-28 09:57:00,
2013-05-28 12:07:00,65.9,50.7,29.85,SW,228,5.0,9.0,58,0.00,BKN,BKN,0.01,100.0,WeatherDisplay:10.37,2013-05-28 10:07:00,
2013-05-28 12:12:00,66.0,49.9,29.85,SW,214,6.0,14.0,56,0.00,BKN,BKN,0.01,600.0,WeatherDisplay:10.37,2013-05-28 10:12:00,
2013-05-28 12:17:00,66.0,49.9,29.85,SW,219,3.0,8.0,56,0.00,SCT,SCT,0.01,600.0,WeatherDisplay:10.37,2013-05-28 10:17:00,
2013-05-28 12:22:00,66.2,47.5,29.85,SW,218,6.0,12.0,51,0.00,FEW,FEW,0.01,0.0,WeatherDisplay:10.37,2013-05-28 10:22:00,
2013-05-28 12:27:00,66.2,47.6,29.85,SW,233,7.0,12.0,51,0.00,BKN,BKN,0.01,0.0,WeatherDisplay:10.37,2013-05-28 10:27:00,
2013-05-28 12:32:00,66.6,48.4,29.83,SW,219,6.0,11.0,52,0.00,BKN,BKN,0.01,300.0,WeatherDisplay:10.37,2013-05-28 10:32:00,
2013-05-28 12:37:00,66.7,48.5,29.83,South,186,5.0,11.0,52,0.00,BKN,BKN,0.01,0.0,WeatherDisplay:10.37,2013-05-28 10:37:00,
2013-05-28 12:42:00,66.7,48.5,29.83,South,190,6.0,10.0,52,0.00,BKN,BKN,0.01,200.0,WeatherDisplay:10.37,2013-05-28 10:42:00,
2013-05-28 12:52:00,67.1,46.2,29.85,WSW,241,9.0,14.0,47,0.00,BKN,BKN,0.01,100.0,WeatherDisplay:10.37,2013-05-28 10:52:00,
2013-05-28 12:57:00,67.1,45.6,29.85,WSW,253,10.0,14.0,46,0.00,RA,RA,0.01,100.0,WeatherDisplay:10.37,2013-05-28 10:57:00,
2013-05-28 13:02:00,67.1,45.0,29.85,WSW,250,6.0,12.0,45,0.00,RA,RA,0.01,300.0,WeatherDisplay:10.37,2013-05-28 11:02:00,
2013-05-28 13:12:00,67.3,44.6,29.85,WSW,249,9.0,16.0,44,0.00,CLR,CLR,0.01,700.0,WeatherDisplay:10.37,2013-05-28 11:12:00,
2013-05-28 13:22:00,67.6,46.1,29.83,WSW,243,8.0,10.0,46,0.00,CLR,CLR,0.01,700.0,WeatherDisplay:10.37,2013-05-28 11:22:00,
2013-05-28 13:27:00,67.8,45.7,29.83,SW,236,7.0,10.0,45,0.00,CLR,CLR,0.01,600.0,WeatherDisplay:10.37,2013-05-28 11:27:00,
2013-05-28 13:32:00,68.0,46.4,29.83,WSW,241,3.0,8.0,46,0.00,CLR,CLR,0.01,500.0,WeatherDisplay:10.37,2013-05-28 11:32:00,
2013-05-28 13:42:00,68.0,45.8,29.83,SSW,208,5.0,10.0,45,0.00,SCT,SCT,0.01,0.0,WeatherDisplay:10.37,2013-05-28 11:42:00,
2013-05-28 13:52:00,67.6,46.1,29.83,South,184,6.0,11.0,46,0.00,BKN,BKN,0.01,200.0,WeatherDisplay:10.37,2013-05-28 11:52:00,
2013-05-28 14:02:00,67.8,45.7,29.83,SSW,199,7.0,14.0,45,0.00,SCT,SCT,0.01,0.0,WeatherDisplay:10.37,2013-05-28 12:02:00,
2013-05-28 14:07:00,67.8,45.1,29.83,SW,221,7.0,10.0,44,0.00,BKN,BKN,0.01,100.0,WeatherDisplay:10.37,2013-05-28 12:07:00,
2013-05-28 14:12:00,67.8,45.7,29.83,SSW,210,6.0,13.0,45,0.00,BKN,BKN,0.01,100.0,WeatherDisplay:10.37,2013-05-28 12:12:00,
2013-05-28 14:17:00,67.8,45.7,29.80,South,185,7.0,13.0,45,0.00,BKN,BKN,0.01,100.0,WeatherDisplay:10.37,2013-05-28 12:17:00,
2013-05-28 14:27:00,67.8,44.5,29.80,SSW,192,7.0,14.0,43,0.00,BKN,BKN,0.01,200.0,WeatherDisplay:10.37,2013-05-28 12:27:00,
2013-05-28 14:37:00,68.0,45.3,29.80,SSW,203,6.0,10.0,44,0.00,BKN,BKN,0.01,0.0,WeatherDisplay:10.37,2013-05-28 12:37:00,
2013-05-28 14:42:00,68.0,45.3,29.80,South,184,7.0,13.0,44,0.00,OVC,OVC,0.01,0.0,WeatherDisplay:10.37,2013-05-28 12:42:00,
2013-05-28 14:52:00,67.8,45.1,29.80,SSW,202,9.0,13.0,44,0.00,OVC,OVC,0.01,0.0,WeatherDisplay:10.37,2013-05-28 12:52:00,
2013-05-28 15:02:00,67.5,45.4,29.80,SSW,207,7.0,12.0,45,0.00,OVC,OVC,0.01,0.0,WeatherDisplay:10.37,2013-05-28 13:02:00,
2013-05-28 15:12:00,67.3,44.6,29.80,SSW,209,9.0,13.0,44,0.00,OVC,OVC,0.01,0.0,WeatherDisplay:10.37,2013-05-28 13:12:00,
2013-05-28 15:17:00,67.1,45.0,29.80,SSW,207,6.0,11.0,45,0.00,OVC,OVC,0.01,0.0,WeatherDisplay:10.37,2013-05-28 13:17:00,
2013-05-28 15:27:00,67.1,44.4,29.80,SSW,211,6.0,10.0,44,0.00,OVC,OVC,0.01,0.0,WeatherDisplay:10.37,2013-05-28 13:27:00,
2013-05-28 15:37:00,67.1,44.4,29.80,South,190,6.0,10.0,44,0.00,OVC,OVC,0.01,0.0,WeatherDisplay:10.37,2013-05-28 13:37:00,
2013-05-28 15:47:00,67.1,43.8,29.80,SSW,195,9.0,15.0,43,0.00,OVC,OVC,0.01,0.0,WeatherDisplay:10.37,2013-05-28 13:47:00,
2013-05-28 15:57:00,66.9,44.3,29.80,South,190,6.0,9.0,44,0.00,OVC,OVC,0.01,0.0,WeatherDisplay:10.37,2013-05-28 13:57:00,
2013-05-28 16:02:00,66.9,43.7,29.80,South,184,5.0,9.0,43,0.00,OVC,OVC,0.01,0.0,WeatherDisplay:10.37,2013-05-28 14:02:00,
2013-05-28 16:07:00,66.9,44.3,29.80,SSW,204,5.0,8.0,44,0.00,OVC,OVC,0.01,0.0,WeatherDisplay:10.37,2013-05-28 14:07:00,
2013-05-28 16:17:00,66.9,44.3,29.80,SSW,200,6.0,12.0,44,0.00,OVC,OVC,0.01,0.0,WeatherDisplay:10.37,2013-05-28 14:17:00,
2013-05-28 16:22:00,66.7,44.1,29.80,SSW,205,5.0,11.0,44,0.00,OVC,OVC,0.01,0.0,WeatherDisplay:10.37,2013-05-28 14:22:00,
2013-05-28 16:32:00,66.7,44.7,29.80,South,173,6.0,15.0,45,0.00,OVC,OVC,0.01,0.0,WeatherDisplay:10.37,2013-05-28 14:32:00,
2013-05-28 16:42:00,66.6,44.5,29.80,South,179,5.0,9.0,45,0.00,OVC,OVC,0.01,0.0,WeatherDisplay:10.37,2013-05-28 14:42:00,
2013-05-28 16:47:00,66.6,45.1,29.80,South,176,7.0,12.0,46,0.00,OVC,OVC,0.01,0.0,WeatherDisplay:10.37,2013-05-28 14:47:00,
2013-05-28 16:52:00,66.6,45.1,29.80,South,174,6.0,12.0,46,0.00,OVC,OVC,0.01,0.0,WeatherDisplay:10.37,2013-05-28 14:52:00,
2013-05-28 16:57:00,66.6,45.1,29.80,South,169,7.0,10.0,46,0.00,OVC,OVC,0.01,0.0,WeatherDisplay:10.37,2013-05-28 14:57:00,
2013-05-28 17:02:00,66.6,45.7,29.80,SSE,165,8.0,10.0,47,0.00,OVC,OVC,0.01,0.0,WeatherDisplay:10.37,2013-05-28 15:02:00,
2013-05-28 17:07:00,66.4,45.5,29.80,SSE,162,7.0,10.0,47,0.00,OVC,OVC,0.01,0.0,WeatherDisplay:10.37,2013-05-28 15:07:00,
2013-05-28 17:17:00,66.4,46.1,29.80,SSE,168,8.0,13.0,48,0.00,OVC,OVC,0.01,0.0,WeatherDisplay:10.37,2013-05-28 15:17:00,
2013-05-28 17:22:00,66.4,46.1,29.80,South,170,6.0,13.0,48,0.00,OVC,OVC,0.01,0.0,WeatherDisplay:10.37,2013-05-28 15:22:00,
2013-05-28 17:27:00,66.2,45.9,29.80,South,169,8.0,14.0,48,0.00,OVC,OVC,0.01,0.0,WeatherDisplay:10.37,2013-05-28 15:27:00,
2013-05-28 17:37:00,66.4,46.6,29.80,SSE,165,8.0,12.0,49,0.00,OVC,OVC,0.01,0.0,WeatherDisplay:10.37,2013-05-28 15:37:00,
2013-05-28 17:42:00,66.4,46.1,29.80,South,172,7.0,13.0,48,0.00,OVC,OVC,0.01,0.0,WeatherDisplay:10.37,2013-05-28 15:42:00,
2013-05-28 17:47:00,66.4,46.6,29.80,South,171,7.0,11.0,49,0.00,OVC,OVC,0.01,0.0,WeatherDisplay:10.37,2013-05-28 15:47:00,
2013-05-28 17:52:00,66.4,46.6,29.80,South,169,7.0,10.0,49,0.00,OVC,OVC,0.01,0.0,WeatherDisplay:10.37,2013-05-28 15:52:00,
2013-05-28 17:57:00,66.4,47.2,29.80,SSE,168,5.0,11.0,50,0.00,OVC,OVC,0.01,0.0,WeatherDisplay:10.37,2013-05-28 15:57:00,
2013-05-28 18:07:00,66.4,47.2,29.80,South,184,6.0,10.0,50,0.00,OVC,OVC,0.01,0.0,WeatherDisplay:10.37,2013-05-28 16:07:00,
2013-05-28 18:12:00,66.2,46.5,29.80,South,184,8.0,14.0,49,0.00,OVC,OVC,0.01,0.0,WeatherDisplay:10.37,2013-05-28 16:12:00,
2013-05-28 18:17:00,66.0,46.3,29.80,South,185,6.0,13.0,49,0.00,OVC,OVC,0.01,0.0,WeatherDisplay:10.37,2013-05-28 16:17:00,
2013-05-28 18:27:00,65.7,46.0,29.80,South,182,7.0,14.0,49,0.00,OVC,OVC,0.01,0.0,WeatherDisplay:10.37,2013-05-28 16:27:00,
2013-05-28 18:32:00,65.6,46.5,29.80,South,179,7.0,11.0,50,0.00,OVC,OVC,0.01,0.0,WeatherDisplay:10.37,2013-05-28 16:32:00,
2013-05-28 18:37:00,65.7,46.5,29.80,South,189,5.0,12.0,50,0.00,OVC,OVC,0.01,0.0,WeatherDisplay:10.37,2013-05-28 16:37:00,
2013-05-28 18:42:00,65.7,46.5,29.80,SSW,198,3.0,7.0,50,0.00,OVC,OVC,0.01,0.0,WeatherDisplay:10.37,2013-05-28 16:42:00,
2013-05-28 18:52:00,65.3,45.6,29.80,South,188,3.0,7.0,49,0.00,OVC,OVC,0.01,0.0,WeatherDisplay:10.37,2013-05-28 16:52:00,
2013-05-28 18:57:00,65.1,45.5,29.80,SSW,195,3.0,8.0,49,0.00,OVC,OVC,0.01,0.0,WeatherDisplay:10.37,2013-05-28 16:57:00,
2013-05-28 19:02:00,65.3,46.2,29.80,South,186,3.0,9.0,50,0.00,OVC,OVC,0.01,0.0,WeatherDisplay:10.37,2013-05-28 17:02:00,
2013-05-28 19:12:00,65.6,45.9,29.80,SSW,193,3.0,9.0,49,0.00,OVC,OVC,0.01,0.0,WeatherDisplay:10.37,2013-05-28 17:12:00,
2013-05-28 19:17:00,65.7,45.5,29.80,SSW,199,3.0,8.0,48,0.00,OVC,OVC,0.01,0.0,WeatherDisplay:10.37,2013-05-28 17:17:00,
2013-05-28 19:27:00,65.8,45.0,29.80,South,190,5.0,8.0,47,0.00,OVC,OVC,0.01,0.0,WeatherDisplay:10.37,2013-05-28 17:27:00,
2013-05-28 19:32:00,65.8,44.5,29.80,South,191,5.0,10.0,46,0.00,OVC,OVC,0.01,0.0,WeatherDisplay:10.37,2013-05-28 17:32:00,
2013-05-28 19:37:00,65.7,44.3,29.80,South,185,5.0,10.0,46,0.00,OVC,OVC,0.01,0.0,WeatherDisplay:10.37,2013-05-28 17:37:00,
2013-05-28 19:42:00,65.6,44.2,29.80,South,183,5.0,10.0,46,0.00,OVC,OVC,0.01,0.0,WeatherDisplay:10.37,2013-05-28 17:42:00,
2013-05-28 19:47:00,65.5,44.1,29.80,South,180,3.0,9.0,46,0.00,OVC,OVC,0.01,0.0,WeatherDisplay:10.37,2013-05-28 17:47:00,
2013-05-28 19:57:00,65.0,43.7,29.80,South,174,5.0,7.0,46,0.00,OVC,OVC,0.01,0.0,WeatherDisplay:10.37,2013-05-28 17:57:00,
2013-05-28 20:07:00,64.6,43.3,29.80,South,179,2.0,5.0,46,0.00,OVC,OVC,0.01,0.0,WeatherDisplay:10.37,2013-05-28 18:07:00,
2013-05-28 20:12:00,64.4,43.7,29.80,South,173,3.0,6.0,47,0.00,OVC,OVC,0.01,0.0,WeatherDisplay:10.37,2013-05-28 18:12:00,
2013-05-28 20:22:00,64.0,43.9,29.80,SSE,167,3.0,6.0,48,0.00,OVC,OVC,0.01,0.0,WeatherDisplay:10.37,2013-05-28 18:22:00,
2013-05-28 20:27:00,63.7,43.6,29.80,SSE,165,3.0,5.0,48,0.00,OVC,OVC,0.01,0.0,WeatherDisplay:10.37,2013-05-28 18:27:00,
2013-05-28 20:32:00,63.5,44.0,29.77,SSE,162,3.0,6.0,49,0.00,OVC,OVC,0.01,0.0,WeatherDisplay:10.37,2013-05-28 18:32:00,
2013-05-28 20:37:00,63.1,44.2,29.77,SSE,159,3.0,6.0,50,0.00,OVC,OVC,0.01,0.0,WeatherDisplay:10.37,2013-05-28 18:37:00,
2013-05-28 20:47:00,62.6,44.2,29.80,SSE,157,5.0,6.0,51,0.00,OVC,OVC,0.01,0.0,WeatherDisplay:10.37,2013-05-28 18:47:00,
2013-05-28 20:52:00,62.4,44.6,29.80,SE,138,3.0,4.0,52,0.00,OVC,OVC,0.01,0.0,WeatherDisplay:10.37,2013-05-28 18:52:00,
2013-05-28 20:57:00,62.2,44.9,29.80,SE,135,3.0,5.0,53,0.00,CLR,CLR,0.01,0.0,WeatherDisplay:10.37,2013-05-28 18:57:00,
2013-05-28 21:02:00,62.1,45.2,29.80,SSE,150,3.0,5.0,54,0.00,CLR,CLR,0.01,0.0,WeatherDisplay:10.37,2013-05-28 19:02:00,
2013-05-28 21:07:00,61.9,45.0,29.80,SSE,157,5.0,6.0,54,0.00,CLR,CLR,0.01,0.0,WeatherDisplay:10.37,2013-05-28 19:07:00,
2013-05-28 21:17:00,61.7,45.8,29.77,SSE,162,5.0,6.0,56,0.00,CLR,CLR,0.01,0.0,WeatherDisplay:10.37,2013-05-28 19:17:00,
2013-05-28 21:22:00,61.5,46.1,29.77,SSE,160,5.0,7.0,57,0.00,CLR,CLR,0.01,0.0,WeatherDisplay:10.37,2013-05-28 19:22:00,
2013-05-28 21:27:00,61.3,46.4,29.77,SSE,163,6.0,7.0,58,0.00,CLR,CLR,0.01,0.0,WeatherDisplay:10.37,2013-05-28 19:27:00,
2013-05-28 21:37:00,61.0,47.4,29.80,SSE,159,6.0,7.0,61,0.00,CLR,CLR,0.01,0.0,WeatherDisplay:10.37,2013-05-28 19:37:00,
2013-05-28 21:47:00,60.6,47.9,29.80,SSE,159,7.0,9.0,63,0.00,CLR,CLR,0.01,0.0,WeatherDisplay:10.37,2013-05-28 19:47:00,
2013-05-28 21:57:00,60.4,48.6,29.80,SSE,160,7.0,10.0,65,0.00,CLR,CLR,0.01,0.0,WeatherDisplay:10.37,2013-05-28 19:57:00,
2013-05-28 22:07:00,60.1,47.9,29.77,SSE,165,7.0,10.0,64,0.00,CLR,CLR,0.01,0.0,WeatherDisplay:10.37,2013-05-28 20:07:00,
2013-05-28 22:17:00,60.1,47.4,29.77,SSE,163,6.0,8.0,63,0.00,CLR,CLR,0.01,0.0,WeatherDisplay:10.37,2013-05-28 20:17:00,
2013-05-28 22:27:00,60.1,47.0,29.77,SSE,165,6.0,8.0,62,0.00,CLR,CLR,0.01,0.0,WeatherDisplay:10.37,2013-05-28 20:27:00,
2013-05-28 22:32:00,60.3,47.2,29.77,SSE,161,7.0,10.0,62,0.00,CLR,CLR,0.01,0.0,WeatherDisplay:10.37,2013-05-28 20:32:00,
2013-05-28 22:37:00,60.3,46.8,29.77,SSE,164,7.0,9.0,61,0.00,CLR,CLR,0.01,0.0,WeatherDisplay:10.37,2013-05-28 20:37:00,
2013-05-28 22:42:00,60.4,46.5,29.77,SSE,167,6.0,9.0,60,0.00,CLR,CLR,0.01,0.0,WeatherDisplay:10.37,2013-05-28 20:42:00,
2013-05-28 22:47:00,60.6,46.2,29.77,SSE,167,8.0,12.0,59,0.00,CLR,CLR,0.01,0.0,WeatherDisplay:10.37,2013-05-28 20:47:00,
2013-05-28 22:52:00,60.8,45.9,29.77,SSE,166,8.0,13.0,58,0.00,CLR,CLR,0.01,0.0,WeatherDisplay:10.37,2013-05-28 20:52:00,
2013-05-28 22:57:00,61.0,46.1,29.77,SSE,165,10.0,15.0,58,0.00,CLR,CLR,0.01,0.0,WeatherDisplay:10.37,2013-05-28 20:57:00,
2013-05-28 23:02:00,61.0,46.5,29.80,SSE,167,8.0,15.0,59,0.00,CLR,CLR,0.01,0.0,WeatherDisplay:10.37,2013-05-28 21:02:00,
2013-05-28 23:07:00,60.8,46.8,29.80,South,172,9.0,17.0,60,0.00,CLR,CLR,0.01,0.0,WeatherDisplay:10.37,2013-05-28 21:07:00,
2013-05-28 23:12:00,60.6,47.5,29.80,SSE,167,9.0,13.0,62,0.00,CLR,CLR,0.01,0.0,WeatherDisplay:10.37,2013-05-28 21:12:00,
2013-05-28 23:17:00,60.1,47.9,29.77,South,171,7.0,13.0,64,0.00,RA,RA,0.01,0.0,WeatherDisplay:10.37,2013-05-28 21:17:00,
2013-05-28 23:22:00,59.7,47.9,29.77,South,170,6.0,9.0,65,0.00,RA,RA,0.01,0.0,WeatherDisplay:10.37,2013-05-28 21:22:00,
2013-05-28 23:27:00,59.4,48.4,29.77,SSE,164,5.0,7.0,67,0.01,RA,RA,0.02,0.0,WeatherDisplay:10.37,2013-05-28 21:27:00,
2013-05-28 23:32:00,59.2,48.2,29.77,SSE,160,6.0,8.0,67,0.00,RA,RA,0.02,0.0,WeatherDisplay:10.37,2013-05-28 21:32:00,
2013-05-28 23:42:00,58.6,48.9,29.77,SSE,157,7.0,9.0,70,0.00,CLR,CLR,0.02,0.0,WeatherDisplay:10.37,2013-05-28 21:42:00,
2013-05-28 23:52:00,58.5,49.1,29.77,SSE,165,3.0,6.0,71,0.00,CLR,CLR,0.02,0.0,WeatherDisplay:10.37,2013-05-28 21:52:00,
2013-05-28 23:57:00,58.3,49.3,29.77,South,172,0.0,3.0,72,0.00,CLR,CLR,0.02,0.0,WeatherDisplay:10.37,2013-05-28 21:57:00,